Terminal Aerodrome Forecast
Issued by NWS Goodland, KS

Home | Current Version | Previous Version | Text Only | Print | Product List | Glossary On
Versions: 1 2 3 4 5 6 7 8 9 10 11 12 13 14 15 16 17 18 19 20
000
FTUS43 KGLD 040520
TAFGLD
TAF
KGLD 040520Z 0406/0506 15008KT P6SM BKN200
     FM041400 16015G25KT P6SM SCT120
     FM050200 16013G22KT P6SM VCTS BKN060CB=

USA.gov is the U.S. government's official web portal to all federal, state and local government web resources and services.